Location: Killam
(52.7910°N, 111.8608°W)
Time: 00:33:51
(UTC+00:00)

Gurwin Techsat 1B - Pass Details

Date: 18 March 2026
Orbit: 809 x 812 km, 99.0° (Epoch: 14 April)

Event Time Altitude Azimuth Distance (km) Brightness Sun altitude
Rises 11:17:52 0° 27° (NNE) 3,342 12.7 -20.7°
Reaches altitude 10° 11:21:03 10° 47° (NE) 2,405 12.2 -20.3°
Maximum altitude 11:24:32 17° 88° (E) 1,928 11.4 -19.8°
Drops below altitude 10° 11:27:59 10° 129° (SE) 2,393 11.4 -19.3°
Sets 11:31:07 0° 149° (SSE) 3,318 11.9 -18.9°
